Location: Newark
(52.1752°N, 10.4140°W)
Time: 01:04:51
(UTC+00:00)

Envisat - Visible Passes

Search period start: 21 November 2019 00:00
Search period end: 01 December 2019 00:00
Orbit: 764 x 766 km, 98.1° (Epoch: 20 November)

Date Brightness Start Highest point End Pass type
(mag) Time Alt. Az. Time Alt. Az. Time Alt. Az.
21 Nov 5.9 06:26:20 10° NE 06:29:59 19° E 06:33:38 10° SE visible
21 Nov 3.3 17:46:04 10° SE 17:50:51 44° ENE 17:55:41 10° N visible
21 Nov 4.7 19:25:29 10° SSW 19:30:01 32° W 19:34:36 10° NNW visible
22 Nov 3.8 07:27:43 10° NNE 07:32:46 59° E 07:37:47 10° S visible
22 Nov 4.0 17:10:19 10° ESE 17:14:23 25° ENE 17:18:27 10° N visible
22 Nov 3.5 18:48:00 10° S 18:53:02 63° WSW 18:58:07 10° NNW visible
22 Nov 6.2 20:32:28 10° W 20:33:07 10° W 20:33:46 10° WNW visible
23 Nov 5.1 06:51:17 10° NNE 06:55:47 30° E 07:00:14 10° SSE visible
23 Nov 2.9 18:11:13 10° SSE 18:16:15 69° ENE 18:21:20 10° N visible
23 Nov 5.5 19:52:00 10° SW 19:55:47 21° W 19:59:35 10° NW visible
24 Nov 6.0 06:15:28 10° NE 06:18:34 16° E 06:21:39 10° SE visible
24 Nov 3.5 17:35:01 10° SE 17:39:39 37° ENE 17:44:18 10° N visible
24 Nov 4.4 19:13:55 10° SSW 19:18:40 39° W 19:23:27 10° NNW visible
25 Nov 4.2 07:16:30 10° NNE 07:21:28 48° E 07:26:21 10° S visible
25 Nov 3.1 18:36:39 10° S 18:41:44 77° WSW 18:46:52 10° NNW visible
25 Nov 6.0 20:19:24 10° WSW 20:21:39 13° W 20:23:55 10° WNW visible
26 Nov 5.4 06:40:11 10° NE 06:44:24 25° E 06:48:33 10° SSE visible
26 Nov 3.0 18:00:03 10° SE 18:05:00 57° ENE 18:10:00 10° N visible
26 Nov 5.2 19:40:14 10° SSW 19:44:23 25° W 19:48:35 10° NW visible
27 Nov 6.1 06:04:48 10° ENE 06:07:07 13° E 06:09:27 10° ESE visible
27 Nov 3.3 07:41:54 10° NNE 07:47:02 77° ESE 07:52:07 10° S visible
27 Nov 3.7 17:24:02 10° ESE 17:28:27 31° ENE 17:32:54 10° N visible
27 Nov 4.0 19:02:25 10° S 19:07:20 48° W 19:12:15 10° NNW visible
28 Nov 4.6 07:05:19 10° NNE 07:10:07 40° E 07:14:52 10° SSE visible
28 Nov 2.9 18:25:22 10° SSE 18:30:27 89° ENE 18:35:35 10° NNW visible
28 Nov 5.8 20:07:09 10° WSW 20:10:13 16° W 20:13:16 10° NW visible
29 Nov 5.7 06:29:10 10° NE 06:32:59 21° E 06:36:47 10° SE visible
29 Nov 3.2 17:48:56 10° SE 17:53:46 47° ENE 17:58:39 10° N visible
29 Nov 4.9 19:28:33 10° SSW 19:33:00 30° W 19:37:29 10° NNW visible
30 Nov 6.4 05:54:49 10° ENE 05:55:39 10° E 05:56:30 10° E visible
30 Nov 3.6 07:30:39 10° NNE 07:35:44 64° ESE 07:40:46 10° S visible
30 Nov 3.9 17:13:07 10° ESE 17:17:17 26° ENE 17:21:28 10° N visible
30 Nov 3.6 18:51:00 10° S 18:56:00 58° W 19:01:03 10° NNW visible
